(278668) = 2008 RS87

Discovered at Kitt Peak on 2008-09-05 by Spacewatch.

Orbit

Orbit type: Hilda

Note: WebGL enabled browser required.

epoch2023-09-13.0
epoch JD2460200.5
perihelion date2017-07-03.63312
perihelion JD2457938.13312
argument of perihelion (°)220.12525
ascending node (°)216.52316
inclination (°)14.47564
eccentricity0.2115146
perihelion distance (AU)3.1068505
Tisserand w.r.t. Jupiter3.0
ΔV w.r.t. Earth (km/sec)11.6
semimajor axis (AU)3.9402764
mean anomaly (°)285.08663
mean daily motion (°/day)0.12601260
aphelion distance (AU)4.774
period (years)7.82
P-vector [x]0.24310207
P-vector [y]0.94167905
P-vector [z]0.23268424
Q-vector [x]-0.95852461
Q-vector [y]0.27000216
Q-vector [z]-0.09126556
absolute magnitude14.88
phase slope0.15
uncertainty0
referenceMPEC 2023-W127
observations used367
oppositions14
arc length (days)10942
first opposition used1993
last opposition used2023
residual rms (arc-secs)0.73
perturbers coarse indicatorM-v
perturbers precise indicator003Ek
first observation date used1993-12-10.0
last observation date used2023-11-25.0
computer nameMPCLINUX
JD of orbit computation2456465.522337
perihelion JD uncertainty (days)2.9246E-04
argument of perihelion uncertainty (°)3.9657E-05
ascending node uncertainty (°)2.4115E-05
inclination uncertainty (°)1.0689E-05
eccentricity uncertainty 6.7853E-08
perihelion distance uncertainty (AU)2.9094E-07
Minimum Orbit Intersection Distances (in AU)
for orbit epoch: 2460200.5, reference: E2023-WC7
Mercury2.80664
Venus2.39678
Earth2.13727
Mars1.61595
Jupiter0.77053
Saturn5.30707
Uranus14.2117
Neptune25.827

Observations

377 total observations over interval: 1993 12 10.31718 – 2023 11 25.252433
These data are available for download (format description).

Date (UT) J2000 RA J2000 Dec Magn Location Ref
1993 12 10.31718 04 21 08.81 +10 00 18.6 19.3 V 691 – Steward Observatory, Kitt Peak-Spacewatch MPS 270252
1993 12 10.35718 04 21 07.15 +10 00 08.2   691 – Steward Observatory, Kitt Peak-Spacewatch MPS 270252
1993 12 10.40064 04 21 05.32 +09 59 57.0   691 – Steward Observatory, Kitt Peak-Spacewatch MPS 270252
2001 12 11.29654 05 31 20.35 +08 21 05.0 19.0   704 – Lincoln Laboratory ETS, New Mexico MPS 320702
2001 12 11.31228 05 31 19.60 +08 21 01.6 19.6   704 – Lincoln Laboratory ETS, New Mexico MPS 320702
2001 12 11.32735 05 31 18.97 +08 20 58.5 19.3   704 – Lincoln Laboratory ETS, New Mexico MPS 320702
2001 12 11.34241 05 31 18.39 +08 20 54.6 20.2   704 – Lincoln Laboratory ETS, New Mexico MPS 320702
2001 12 11.35763 05 31 17.61 +08 20 51.8 19.4   704 – Lincoln Laboratory ETS, New Mexico MPS 320702
2002 01 18.84626 05 08 54.98 +07 26 00.9 19.4 V 209 – Asiago Observatory, Cima Ekar-ADAS MPS 270252
2002 01 18.89394 05 08 54.15 +07 26 03.4 19.1 V 209 – Asiago Observatory, Cima Ekar-ADAS MPS 270252
2002 01 18.94229 05 08 53.26 +07 26 06.1 19.5 V 209 – Asiago Observatory, Cima Ekar-ADAS MPS 270252
2008 09 05.43640 01 04 37.70 +16 06 06.5 20.3 V 691 – Steward Observatory, Kitt Peak-Spacewatch MPS 256829
2008 09 05.45747 01 04 37.28 +16 06 02.7 20.3 V 691 – Steward Observatory, Kitt Peak-Spacewatch MPS 256829
2008 09 05.47510 01 04 36.90 +16 05 59.4 20.2 V 691 – Steward Observatory, Kitt Peak-Spacewatch MPS 256829
2008 09 09.37566 01 03 15.64 +15 52 45.8 19.9 V 691 – Steward Observatory, Kitt Peak-Spacewatch MPS 256829
2008 09 09.39329 01 03 15.20 +15 52 41.8 19.9 V 691 – Steward Observatory, Kitt Peak-Spacewatch MPS 256829
2008 09 09.41090 01 03 14.79 +15 52 37.8 20.1 V 691 – Steward Observatory, Kitt Peak-Spacewatch MPS 256829
2008 09 20.19909 00 58 24.21 +15 04 05.7   691 – Steward Observatory, Kitt Peak-Spacewatch MPS 258073
2008 09 20.21422 00 58 23.74 +15 04 00.9   691 – Steward Observatory, Kitt Peak-Spacewatch MPS 258073
2008 09 20.22935 00 58 23.26 +15 03 56.2   691 – Steward Observatory, Kitt Peak-Spacewatch MPS 258073
2008 09 22.19446 00 57 21.54 +14 53 17.8 20.4 V 691 – Steward Observatory, Kitt Peak-Spacewatch MPS 258073
2008 09 22.21209 00 57 20.95 +14 53 12.0 20.0 V 691 – Steward Observatory, Kitt Peak-Spacewatch MPS 258073
2008 09 22.22969 00 57 20.40 +14 53 06.3 19.9 V 691 – Steward Observatory, Kitt Peak-Spacewatch MPS 258073
2008 09 25.17719 00 55 43.72 +14 36 10.1 19.8 V 691 – Steward Observatory, Kitt Peak-Spacewatch MPS 258073
2008 09 25.19480 00 55 43.16 +14 36 03.9 20.0 V 691 – Steward Observatory, Kitt Peak-Spacewatch MPS 258073
2008 09 25.21242 00 55 42.54 +14 35 57.4 20.0 V 691 – Steward Observatory, Kitt Peak-Spacewatch MPS 258073
2008 10 01.28248 00 52 11.68 +13 57 46.3 20.0   704 – Lincoln Laboratory ETS, New Mexico MPS 258073
2008 10 01.29481 00 52 11.20 +13 57 41.3 20.1   704 – Lincoln Laboratory ETS, New Mexico MPS 258073
2008 10 01.30703 00 52 10.82 +13 57 36.3 20.0   704 – Lincoln Laboratory ETS, New Mexico MPS 258073
2008 10 01.31923 00 52 10.33 +13 57 30.2 20.1   704 – Lincoln Laboratory ETS, New Mexico MPS 258073
2008 10 02.34943 00 51 33.40 +13 50 40.8 21.2 V 703 – Catalina Sky Survey MPS 259349
2008 10 02.35789 00 51 33.12 +13 50 35.8 20.0 V 703 – Catalina Sky Survey MPS 259349
2008 10 02.36644 00 51 32.97 +13 50 32.6 20.7 V 703 – Catalina Sky Survey MPS 259349
2008 10 02.37499 00 51 32.58 +13 50 29.2 19.8 V 703 – Catalina Sky Survey MPS 259349
2008 10 06.14516 00 49 16.51 +13 24 28.4 19.6 V 691 – Steward Observatory, Kitt Peak-Spacewatch MPS 259349
2008 10 06.16278 00 49 15.90 +13 24 21.1 19.7 V 691 – Steward Observatory, Kitt Peak-Spacewatch MPS 259349
2008 10 06.18037 00 49 15.23 +13 24 13.6 19.7 V 691 – Steward Observatory, Kitt Peak-Spacewatch MPS 259349
2008 10 08.15022 00 48 03.75 +13 10 11.2 19.6 V 691 – Steward Observatory, Kitt Peak-Spacewatch MPS 259349
2008 10 08.17127 00 48 02.97 +13 10 02.2 19.7 V 691 – Steward Observatory, Kitt Peak-Spacewatch MPS 259349
2008 10 08.18888 00 48 02.15 +13 09 52.9 19.1 V 691 – Steward Observatory, Kitt Peak-Spacewatch MPS 259349
2008 11 01.30501 00 35 08.57 +10 10 01.1 20.1 R H10 – Tzec Maun Observatory, Mayhill MPS 263310
2008 11 01.30892 00 35 08.51 +10 09 58.7 20.2 R H10 – Tzec Maun Observatory, Mayhill MPS 263310
2008 11 01.31542 00 35 08.40 +10 09 56.9 19.9 R H10 – Tzec Maun Observatory, Mayhill MPS 263310
2008 11 01.31934 00 35 08.30 +10 09 55.5 19.5 R H10 – Tzec Maun Observatory, Mayhill MPS 263311
2008 11 02.19502 00 34 47.25 +10 03 40.7 20.0   704 – Lincoln Laboratory ETS, New Mexico MPS 263311
2008 11 02.20678 00 34 46.98 +10 03 35.8 19.8   704 – Lincoln Laboratory ETS, New Mexico MPS 263311
2008 11 02.21907 00 34 46.68 +10 03 30.0 20.0   704 – Lincoln Laboratory ETS, New Mexico MPS 263311
2008 11 02.23088 00 34 46.43 +10 03 25.2 20.8   704 – Lincoln Laboratory ETS, New Mexico MPS 263311
2008 11 02.24264 00 34 46.06 +10 03 19.6 20.0   704 – Lincoln Laboratory ETS, New Mexico MPS 263311
2008 11 04.16155 00 34 02.53 +09 49 50.0 20.5 V 703 – Catalina Sky Survey MPS 263311
2008 11 04.16833 00 34 02.28 +09 49 46.6 20.2 V 703 – Catalina Sky Survey MPS 263311
2008 11 04.17502 00 34 02.24 +09 49 42.3 20.2 V 703 – Catalina Sky Survey MPS 263311
2008 11 04.18185 00 34 02.06 +09 49 40.5 21.0 V 703 – Catalina Sky Survey MPS 263311
2009 01 02.13619 00 44 00.49 +06 38 30.8 20.8 V G96 – Mt. Lemmon Survey MPS 270252
2009 01 02.14343 00 44 00.78 +06 38 31.4 21.0 V G96 – Mt. Lemmon Survey MPS 270252
2009 01 02.15076 00 44 01.06 +06 38 31.4 20.9 V G96 – Mt. Lemmon Survey MPS 270252
2009 01 02.15806 00 44 01.35 +06 38 31.6 20.8 V G96 – Mt. Lemmon Survey MPS 270252
2010 03 20.437836 06 23 26.68 +07 51 35.8   C51 – WISE MPS 335023
2010 03 20.570140 06 23 31.71 +07 52 02.3   C51 – WISE MPS 335023
2010 03 20.702444 06 23 36.76 +07 52 29.4   C51 – WISE MPS 319391
2010 03 20.834748 06 23 41.72 +07 52 54.4   C51 – WISE MPS 335023
2010 03 20.900964 06 23 44.23 +07 53 06.7   C51 – WISE MPS 335023
2010 03 20.96705 06 23 46.77 +07 53 20.5   C51 – WISE MPS 319391
2010 03 20.96718 06 23 46.74 +07 53 20.0   C51 – WISE MPS 319391
2010 03 21.033267 06 23 49.31 +07 53 32.8   C51 – WISE MPS 319391
2010 03 21.099484 06 23 51.83 +07 53 46.2   C51 – WISE MPS 319391
2010 03 21.165572 06 23 54.38 +07 53 59.0   C51 – WISE MPS 319391
2010 03 21.29788 06 23 59.51 +07 54 25.0   C51 – WISE MPS 319391
2010 03 21.43018 06 24 04.53 +07 54 51.2   C51 – WISE MPS 319391
2010 03 21.43031 06 24 04.55 +07 54 49.0   C51 – WISE MPS 319391
2010 03 21.56261 06 24 09.63 +07 55 18.2   C51 – WISE MPS 319391
2011 03 14.30724 11 07 35.04 -09 23 49.4 19.6 V G96 – Mt. Lemmon Survey MPS 374823
2011 03 14.31475 11 07 34.75 -09 23 46.5 20.4 V G96 – Mt. Lemmon Survey MPS 374823
2011 03 14.32965 11 07 34.21 -09 23 40.9 20.1 V G96 – Mt. Lemmon Survey MPS 374823
2011 03 15.37011 11 06 57.380 -09 17 19.99 20.3 i F51 – Pan-STARRS 1, Haleakala MPS 381232
2011 03 15.38164 11 06 56.946 -09 17 15.81 20.4 i F51 – Pan-STARRS 1, Haleakala MPS 381232
2011 03 15.39457 11 06 56.465 -09 17 11.02 20.4 r F51 – Pan-STARRS 1, Haleakala MPS 381232
2011 03 15.40512 11 06 56.094 -09 17 07.23 20.4 r F51 – Pan-STARRS 1, Haleakala MPS 381232
2012 03 28.37692 14 30 59.43 -15 53 38.5 21.0 V 691 – Steward Observatory, Kitt Peak-Spacewatch MPS 420161
2012 03 28.39469 14 30 58.97 -15 53 34.7 20.9 V 691 – Steward Observatory, Kitt Peak-Spacewatch MPS 420161
2012 03 28.41247 14 30 58.49 -15 53 30.8 21.2 V 691 – Steward Observatory, Kitt Peak-Spacewatch MPS 420161
2012 05 13.26240 14 05 52.44 -12 20 18.0 20.5 V G96 – Mt. Lemmon Survey MPS 424856
2012 05 13.26821 14 05 52.26 -12 20 16.7 20.6 V G96 – Mt. Lemmon Survey MPS 424856
2012 05 13.27402 14 05 52.00 -12 20 15.7 21.3 V G96 – Mt. Lemmon Survey MPS 424856
2012 05 13.27978 14 05 51.82 -12 20 13.6 22.3 V G96 – Mt. Lemmon Survey MPS 424856
2012 05 21.34753 14 01 59.724 -11 44 50.08 21.9 w F51 – Pan-STARRS 1, Haleakala MPS 425924
2012 05 21.36203 14 01 59.346 -11 44 46.33 21.2 w F51 – Pan-STARRS 1, Haleakala MPS 425924
2012 05 21.37653 14 01 58.955 -11 44 42.76 21.3 w F51 – Pan-STARRS 1, Haleakala MPS 425924
2012 05 21.39107 14 01 58.570 -11 44 39.38 21.5 w F51 – Pan-STARRS 1, Haleakala MPS 425924
